Diboll, TX

1:32 PM CST on December 06, 2016 (GMT -0600)
Angelina County

Weather History for KLFK - August, 2014

Change the Weather History Date:

Thursday, August 28, 2014

  Actual Average Record
Temperature  
Mean Temperature 85 °F 82 °F  
Max Temperature 95 °F 93 °F 105 °F (1943)
Min Temperature 75 °F 71 °F 56 °F (1992)
Degree Days  
Heating Degree Days 0 0  
Month to date heating degree days 0 0  
Since 1 June heating degree days 0 0  
Since 1 July heating degree days 0 0  
Cooling Degree Days 20 17  
Month to date cooling degree days 564 499  
Year to date cooling degree days 2179 1970  
Since 1 June cooling degree days 1683 1501  
Growing Degree Days 34 (Base 50)    
Moisture  
Dew Point 73 °F    
Average Humidity 67    
Maximum Humidity 87    
Minimum Humidity 46    
Precipitation  
Precipitation 0.03 in 0.11 in 2.67 in (2003)
Month to date precipitation 2.50 2.99  
Year to date precipitation 31.82 30.24  
Snow  
Snow 0.00 in - - ()
Month to date snowfall 0.0  
Since 1 June snowfall 0.0  
Since 1 July snowfall 0.0  
Snow Depth 0.00 in    
Sea Level Pressure  
Sea Level Pressure 29.94 in    
Wind  
Wind Speed 4 mph (SE)    
Max Wind Speed 22 mph    
Max Gust Speed 28 mph    
Visibility 10 miles    
Events Rain , Thunderstorm    
T = Trace of Precipitation, MM = Missing Value Source: NWS Daily Summary

Daily Weather History Graph

Daily Weather History Graph

Search for Another Location

Airport or City:

Trip Planner

Search our weather history database for the weather conditions in past years. The results will help you decide how hot, cold, wet, or windy it might be!

Date:

Astronomy

Aug. 28, 2014 Rise Set
Actual Time 6:52 AM CDT 7:47 PM CDT
Civil Twilight 6:27 AM CDT 8:12 PM CDT
Nautical Twilight 5:58 AM CDT 8:41 PM CDT
Astronomical Twilight 5:28 AM CDT 9:11 PM CDT
Moon 9:32 AM CDT (8/28) 9:27 PM CDT (8/28)
Length of Visible Light 13h 44m
Length of Day
12h 54m
Waxing Crescent, 9% of the Moon is Illuminated
Aug 28
Waxing Crescent
Sep 2
First Quarter
Sep 8
Full
Sep 15
Last Quarter
Sep 24
New

Hourly Weather History & Observations

Time (CDT) Temp. Heat Index Dew Point Humidity Pressure Visibility Wind Dir Wind Speed Gust Speed Precip Events Conditions
12:53 AM 77.0 °F - 72.0 °F 84% 29.98 in 10.0 mi East 3.5 mph - N/A   Clear
1:53 AM 77.0 °F - 72.0 °F 84% 29.98 in 10.0 mi Calm Calm - N/A   Partly Cloudy
2:53 AM 77.0 °F - 72.0 °F 84% 29.96 in 10.0 mi Calm Calm - N/A   Clear
3:53 AM 75.9 °F - 71.1 °F 85% 29.94 in 10.0 mi Calm Calm - N/A   Clear
4:53 AM 75.0 °F - 71.1 °F 87% 29.94 in 9.0 mi Calm Calm - N/A   Clear
5:53 AM 75.0 °F - 71.1 °F 87% 29.94 in 9.0 mi Calm Calm - N/A   Clear
6:53 AM 75.9 °F - 71.1 °F 85% 29.95 in 10.0 mi ENE 3.5 mph - N/A   Clear
7:53 AM 79.0 °F - 73.0 °F 82% 29.96 in 9.0 mi ENE 3.5 mph - N/A   Clear
8:53 AM 82.9 °F 89.4 °F 73.9 °F 74% 29.97 in 10.0 mi NE 4.6 mph - N/A   Clear
9:53 AM 84.2 °F 90.9 °F 73.4 °F 70% 29.99 in 10.0 mi ESE 6.9 mph - N/A   Overcast
10:53 AM 89.1 °F 97.0 °F 73.0 °F 59% 29.98 in 10.0 mi ESE 8.1 mph - N/A   Clear
11:53 AM 91.9 °F 100.7 °F 73.0 °F 54% 29.97 in 10.0 mi SSE 12.7 mph - N/A   Partly Cloudy
12:53 PM 93.0 °F 97.9 °F 69.1 °F 45% 29.94 in 10.0 mi Variable 5.8 mph - N/A   Partly Cloudy
1:53 PM 93.9 °F 99.1 °F 69.1 °F 44% 29.93 in 10.0 mi ESE 4.6 mph - N/A   Partly Cloudy
2:29 PM 91.9 °F 97.4 °F 70.0 °F 48% 29.94 in 10.0 mi SSE 21.9 mph 28.8 mph N/A Thunderstorm Scattered Clouds
2:45 PM 81.0 °F 86.2 °F 73.9 °F 79% 29.95 in 6.0 mi South 17.3 mph 24.2 mph 0.02 in Rain , Thunderstorm Light Thunderstorms and Rain
2:53 PM 80.1 °F 84.5 °F 73.9 °F 81% 29.94 in 5.0 mi SSW 12.7 mph - 0.03 in Rain , Thunderstorm Thunderstorms and Rain
3:00 PM 79.0 °F - 73.0 °F 82% 29.95 in 10.0 mi South 9.2 mph - 0.00 in Rain , Thunderstorm Light Rain
3:22 PM 80.1 °F 83.8 °F 72.0 °F 76% 29.95 in 10.0 mi SSE 6.9 mph - 0.00 in   Scattered Clouds
3:53 PM 84.0 °F 90.2 °F 73.0 °F 69% 29.91 in 10.0 mi SE 5.8 mph - 0.00 in   Scattered Clouds
4:53 PM 86.0 °F 96.0 °F 75.9 °F 72% 29.90 in 10.0 mi South 9.2 mph - N/A   Scattered Clouds
5:53 PM 88.0 °F 94.7 °F 72.0 °F 59% 29.89 in 10.0 mi SSE 9.2 mph - N/A   Clear
6:53 PM 86.0 °F 93.0 °F 73.0 °F 65% 29.87 in 10.0 mi SSE 6.9 mph - N/A   Clear
7:53 PM 82.9 °F 89.4 °F 73.9 °F 74% 29.88 in 10.0 mi SSW 3.5 mph - N/A   Clear
8:53 PM 82.0 °F 87.9 °F 73.9 °F 76% 29.90 in 10.0 mi Calm Calm - N/A   Clear
9:53 PM 81.0 °F 86.2 °F 73.9 °F 79% 29.91 in 10.0 mi Calm Calm - N/A   Clear
10:53 PM 80.1 °F 85.1 °F 75.0 °F 85% 29.92 in 10.0 mi SE 4.6 mph - N/A   Clear
11:53 PM 79.0 °F - 73.9 °F 84% 29.93 in 10.0 mi Calm Calm - N/A   Clear